Location: Bern�tre
(50.1974°N, 2.0915°E)
Time: 22:35:19
(UTC+00:00)

Meteor 2-13 Rocket - Pass Details

Date: 18 September 2020
Orbit: 935 x 958 km, 82.5° (Epoch: 30 October)

Event Time Altitude Azimuth Distance (km) Brightness Sun altitude
Rises 19:56:37 0° 350° (N) 3,653 8.1 -19.1°
Reaches altitude 10° 19:59:08 10° 351° (N) 2,702 7.3 -19.5°
Maximum altitude 20:05:21 82° 80° (E) 974 4.4 -20.3°
Enters shadow 20:09:03 26° 165° (SSE) 1,794 5.5 -20.8°
